Location: Ciserano
(45.5833°N, 9.6000°E)
Time: 00:33:22
(UTC+00:00)

FALCON 9 DEB - Pass Details

Date: 19 April 2021
Orbit: 369 x 385 km, 53.0° (Epoch: 10 May)

Event Time Altitude Azimuth Distance (km) Brightness Sun altitude
Exits shadow 02:58:01 19° 296° (WNW) 980 4.6 -15.2°
Maximum altitude 03:00:05 72° 215° (SW) 399 2.7 -14.9°
Drops below altitude 10° 03:03:10 10° 130° (SE) 1,384 5.9 -14.4°
Sets 03:05:13 0° 128° (SE) 2,236 7.0 -14.1°
